2023/02/27 00:00:00,18.2,-0.1
2023/02/27 00:10:00,18.2,-0.2
2023/02/27 00:20:00,18.2,-0.9
2023/02/27 00:30:00,18.3,-0.5
2023/02/27 00:40:00,18.3,-0.4
2023/02/27 00:50:00,18.2,-0.4
2023/02/27 01:00:00,18.2,-0.9
2023/02/27 01:10:00,18.3,-1.0
2023/02/27 01:20:00,18.3,-1.0
2023/02/27 01:30:00,18.2,-1.0
2023/02/27 01:40:00,18.2,-1.0
2023/02/27 01:50:00,18.2,-0.8
2023/02/27 02:00:00,18.3,-0.7
2023/02/27 02:10:00,18.3,-1.1
2023/02/27 02:20:00,18.3,-1.3
2023/02/27 02:30:00,18.3,-1.4
2023/02/27 02:40:00,18.3,-1.4
2023/02/27 02:50:00,18.3,-1.5
2023/02/27 03:00:00,18.3,-1.6
2023/02/27 03:10:00,18.3,-1.6
2023/02/27 03:20:00,18.3,-1.6
2023/02/27 03:30:00,18.3,-1.4
2023/02/27 03:40:00,18.2,-1.2
2023/02/27 03:50:00,18.3,-1.6
2023/02/27 04:00:00,18.3,-1.8
2023/02/27 04:10:00,18.2,-2.0
2023/02/27 04:20:00,18.2,-2.3
2023/02/27 04:30:00,18.3,-2.1
2023/02/27 04:40:00,18.3,-2.2
2023/02/27 04:50:00,18.3,-2.3
2023/02/27 05:00:00,18.2,-2.3
2023/02/27 05:10:00,18.3,-2.4
2023/02/27 05:20:00,18.4,-2.5
2023/02/27 05:30:00,18.5,-2.7
2023/02/27 05:40:00,18.5,-2.8
2023/02/27 05:50:00,18.5,-2.9
2023/02/27 06:00:00,18.4,-2.7
2023/02/27 06:10:00,18.5,-3.0
2023/02/27 06:20:00,18.5,-2.9
2023/02/27 06:30:00,18.4,-2.9
2023/02/27 06:40:00,18.3,-2.9
2023/02/27 06:50:00,18.4,-2.5
2023/02/27 07:00:00,18.3,-2.9
2023/02/27 07:10:00,18.4,-2.7
2023/02/27 07:20:00,18.4,-2.7
2023/02/27 07:30:00,18.4,-2.7
2023/02/27 07:40:00,18.4,-2.6
2023/02/27 07:50:00,18.3,-2.4
2023/02/27 08:00:00,18.3,-2.1
2023/02/27 08:10:00,18.3,-1.9
2023/02/27 08:20:00,18.3,-1.6
2023/02/27 08:30:00,18.3,-0.9
2023/02/27 08:40:00,18.3,-0.7
2023/02/27 08:50:00,18.3, 0.1
2023/02/27 09:00:00,18.2, 0.9
2023/02/27 09:10:00,18.2, 1.1
2023/02/27 09:20:00,18.2, 2.0
2023/02/27 09:30:00,18.2, 2.6
2023/02/27 09:40:00,18.1, 3.3
2023/02/27 09:50:00,18.2, 3.2
2023/02/27 10:00:00,18.1, 3.6
2023/02/27 10:10:00,18.1, 4.1
2023/02/27 10:20:00,18.1, 4.7
2023/02/27 10:30:00,18.1, 4.8
2023/02/27 10:40:00,18.0, 5.1
2023/02/27 10:50:00,17.9, 5.6
2023/02/27 11:00:00,17.9, 6.0
2023/02/27 11:10:00,18.0, 6.4
2023/02/27 11:20:00,18.0, 7.5
2023/02/27 11:30:00,18.0, 8.2
2023/02/27 11:40:00,51.7, 9.3
2023/02/27 11:50:00,102.2, 9.6
2023/02/27 12:00:00,102.5,10.1
2023/02/27 12:10:00,102.9,10.6
2023/02/27 12:20:00,103.2,11.1
2023/02/27 12:30:00,103.5,11.5
2023/02/27 12:40:00,103.0,11.1
2023/02/27 12:50:00,102.7,11.5
2023/02/27 13:00:00,103.1,11.6
2023/02/27 13:10:00,102.8,12.4
2023/02/27 13:20:00,102.4,12.2
2023/02/27 13:30:00,101.8,13.0
2023/02/27 13:40:00,102.0,12.5
2023/02/27 13:50:00,101.4,13.2
2023/02/27 14:00:00,---,13.2
2023/02/27 14:10:00,99.8,12.7
2023/02/27 14:20:00,98.8,12.5
2023/02/27 14:30:00,40.9,12.0
2023/02/27 14:40:00,16.1,11.9
2023/02/27 14:50:00,15.8,10.9
2023/02/27 15:00:00,---,10.2
2023/02/27 15:10:00,15.4, 9.9
2023/02/27 15:20:00,15.3, 8.7
2023/02/27 15:30:00,15.2, 8.4
2023/02/27 15:40:00,15.1, 7.8
2023/02/27 15:50:00,15.3, 7.9
2023/02/27 16:00:00,15.4, 7.3
2023/02/27 16:10:00,14.9, 7.0
2023/02/27 16:20:00,14.9, 6.0
2023/02/27 16:30:00,14.6, 5.7
2023/02/27 16:40:00,14.5, 5.5
2023/02/27 16:50:00,14.5, 5.0
2023/02/27 17:00:00,14.5, 5.0
2023/02/27 17:10:00,14.5, 4.9
2023/02/27 17:20:00,14.5, 4.4
2023/02/27 17:30:00,14.4, 4.2
2023/02/27 17:40:00,14.4, 3.7
2023/02/27 17:50:00,14.4, 3.6
2023/02/27 18:00:00,14.3, 3.1
2023/02/27 18:10:00,14.4, 2.9
2023/02/27 18:20:00,14.4, 2.8
2023/02/27 18:30:00,14.4, 2.4
2023/02/27 18:40:00,14.4, 2.2
2023/02/27 18:50:00,14.5, 2.0
2023/02/27 19:00:00,14.6, 2.0
2023/02/27 19:10:00,14.5, 1.7
2023/02/27 19:20:00,14.5, 1.4
2023/02/27 19:30:00,14.6, 1.5
2023/02/27 19:40:00,14.4, 1.1
2023/02/27 19:50:00,14.4, 0.8
2023/02/27 20:00:00,14.4, 0.7
2023/02/27 20:10:00,14.4, 0.6
2023/02/27 20:20:00,14.4, 0.5
2023/02/27 20:30:00,14.4, 0.2
2023/02/27 20:40:00,14.3, 0.0
2023/02/27 20:50:00,14.2, 0.0
2023/02/27 21:00:00,14.3,-0.1
2023/02/27 21:10:00,14.4, 0.0
2023/02/27 21:20:00,14.5,-0.2
2023/02/27 21:30:00,14.6,-0.2
2023/02/27 21:40:00,14.6,-0.1
2023/02/27 21:50:00,14.7,-0.1
2023/02/27 22:00:00,14.8,-0.2
2023/02/27 22:10:00,14.7,-0.2
2023/02/27 22:20:00,14.7, 0.0
2023/02/27 22:30:00,14.7,-0.3
2023/02/27 22:40:00,14.7, 0.0
2023/02/27 22:50:00,14.8,-0.2
2023/02/27 23:00:00,14.8,-0.1
2023/02/27 23:10:00,14.7,-0.3
2023/02/27 23:20:00,14.8,-0.1
2023/02/27 23:30:00,14.9,-0.4
2023/02/27 23:40:00,15.0,-0.7
2023/02/27 23:50:00,14.9,-0.6
